Year,Month,Day,Hour,Minute,Value (Times are PST for insolation in W/m^2)
2019,02,27,00,00,0.00
2019,02,27,00,01,0.00
2019,02,27,00,02,0.00
2019,02,27,00,03,0.00
2019,02,27,00,04,0.00
2019,02,27,00,05,0.00
2019,02,27,00,06,0.00
2019,02,27,00,07,0.00
2019,02,27,00,08,0.00
2019,02,27,00,09,0.00
2019,02,27,00,10,0.00
2019,02,27,00,11,0.00
2019,02,27,00,12,0.00
2019,02,27,00,13,0.00
2019,02,27,00,14,0.00
2019,02,27,00,15,0.00
2019,02,27,00,16,0.00
2019,02,27,00,17,0.00
2019,02,27,00,18,0.00
2019,02,27,00,19,0.00
2019,02,27,00,20,0.00
2019,02,27,00,21,0.00
2019,02,27,00,22,0.00
2019,02,27,00,23,0.00
2019,02,27,00,24,0.00
2019,02,27,00,25,0.00
2019,02,27,00,26,0.00
2019,02,27,00,27,0.00
2019,02,27,00,28,0.00
2019,02,27,00,29,0.00
2019,02,27,00,30,0.00
2019,02,27,00,31,0.00
2019,02,27,00,32,0.00
2019,02,27,00,33,0.00
2019,02,27,00,34,0.00
2019,02,27,00,35,0.00
2019,02,27,00,36,0.00
2019,02,27,00,37,0.00
2019,02,27,00,38,0.00
2019,02,27,00,39,0.00
2019,02,27,00,40,0.00
2019,02,27,00,41,0.00
2019,02,27,00,42,0.00
2019,02,27,00,43,0.00
2019,02,27,00,44,0.00
2019,02,27,00,45,0.00
2019,02,27,00,46,0.00
2019,02,27,00,47,0.00
2019,02,27,00,48,0.00
2019,02,27,00,49,0.00
2019,02,27,00,50,0.00
2019,02,27,00,51,0.00
2019,02,27,00,52,0.00
2019,02,27,00,53,0.00
2019,02,27,00,54,0.00
2019,02,27,00,55,0.00
2019,02,27,00,56,0.00
2019,02,27,00,57,0.00
2019,02,27,00,58,0.00
2019,02,27,00,59,0.00
2019,02,27,01,00,0.00
2019,02,27,01,01,0.00
2019,02,27,01,02,0.00
2019,02,27,01,03,0.00
2019,02,27,01,04,0.00
2019,02,27,01,05,0.00
2019,02,27,01,06,0.00
2019,02,27,01,07,0.00
2019,02,27,01,08,0.00
2019,02,27,01,09,0.00
2019,02,27,01,10,0.00
2019,02,27,01,11,0.00
2019,02,27,01,12,0.00
2019,02,27,01,13,0.00
2019,02,27,01,14,0.00
2019,02,27,01,15,0.00
2019,02,27,01,16,0.00
2019,02,27,01,17,0.00
2019,02,27,01,18,0.00
2019,02,27,01,19,0.00
2019,02,27,01,20,0.00
2019,02,27,01,21,0.00
2019,02,27,01,22,0.00
2019,02,27,01,23,0.00
2019,02,27,01,24,0.00
2019,02,27,01,25,0.00
2019,02,27,01,26,0.00
2019,02,27,01,27,0.00
2019,02,27,01,28,0.00
2019,02,27,01,29,0.00
2019,02,27,01,30,0.00
2019,02,27,01,31,0.00
2019,02,27,01,32,0.00
2019,02,27,01,33,0.00
2019,02,27,01,34,0.00
2019,02,27,01,35,0.00
2019,02,27,01,36,0.00
2019,02,27,01,37,0.00
2019,02,27,01,38,0.00
2019,02,27,01,39,0.00
2019,02,27,01,40,0.00
2019,02,27,01,41,0.00
2019,02,27,01,42,0.00
2019,02,27,01,43,0.00
2019,02,27,01,44,0.00
2019,02,27,01,45,0.00
2019,02,27,01,46,0.00
2019,02,27,01,47,0.00
2019,02,27,01,48,0.00
2019,02,27,01,49,0.00
2019,02,27,01,50,0.00
2019,02,27,01,51,0.00
2019,02,27,01,52,0.00
2019,02,27,01,53,0.00
2019,02,27,01,54,0.00
2019,02,27,01,55,0.00
2019,02,27,01,56,0.00
2019,02,27,01,57,0.00
2019,02,27,01,58,0.00
2019,02,27,01,59,0.00
2019,02,27,02,00,0.00
2019,02,27,02,01,0.00
2019,02,27,02,02,0.00
2019,02,27,02,03,0.00
2019,02,27,02,04,0.00
2019,02,27,02,05,0.00
2019,02,27,02,06,0.00
2019,02,27,02,07,0.00
2019,02,27,02,08,0.00
2019,02,27,02,09,0.00
2019,02,27,02,10,0.00
2019,02,27,02,11,0.00
2019,02,27,02,12,0.00
2019,02,27,02,13,0.00
2019,02,27,02,14,0.00
2019,02,27,02,15,0.00
2019,02,27,02,16,0.00
2019,02,27,02,17,0.00
2019,02,27,02,18,0.00
2019,02,27,02,19,0.00
2019,02,27,02,20,0.00
2019,02,27,02,21,0.00
2019,02,27,02,22,0.00
2019,02,27,02,23,0.00
2019,02,27,02,24,0.00
2019,02,27,02,25,0.00
2019,02,27,02,26,0.00
2019,02,27,02,27,0.00
2019,02,27,02,28,0.00
2019,02,27,02,29,0.00
2019,02,27,02,30,0.00
2019,02,27,02,31,0.00
2019,02,27,02,32,0.00
2019,02,27,02,33,0.00
2019,02,27,02,34,0.00
2019,02,27,02,35,0.00
2019,02,27,02,36,0.00
2019,02,27,02,37,0.00
2019,02,27,02,38,0.00
2019,02,27,02,39,0.00
2019,02,27,02,40,0.00
2019,02,27,02,41,0.00
2019,02,27,02,42,0.00
2019,02,27,02,43,0.00
2019,02,27,02,44,0.00
2019,02,27,02,45,0.00
2019,02,27,02,46,0.00
2019,02,27,02,47,0.00
2019,02,27,02,48,0.00
2019,02,27,02,49,0.00
2019,02,27,02,50,0.00
2019,02,27,02,51,0.00
2019,02,27,02,52,0.00
2019,02,27,02,53,0.00
2019,02,27,02,54,0.00
2019,02,27,02,55,0.00
2019,02,27,02,56,0.00
2019,02,27,02,57,0.00
2019,02,27,02,58,0.00
2019,02,27,02,59,0.00
2019,02,27,03,00,0.00
2019,02,27,03,01,0.00
2019,02,27,03,02,0.00
2019,02,27,03,03,0.00
2019,02,27,03,04,0.00
2019,02,27,03,05,0.00
2019,02,27,03,06,0.00
2019,02,27,03,07,0.00
2019,02,27,03,08,0.00
2019,02,27,03,09,0.00
2019,02,27,03,10,0.00
2019,02,27,03,11,0.00
2019,02,27,03,12,0.00
2019,02,27,03,13,0.00
2019,02,27,03,14,0.00
2019,02,27,03,15,0.00
2019,02,27,03,16,0.00
2019,02,27,03,17,0.00
2019,02,27,03,18,0.00
2019,02,27,03,19,0.00
2019,02,27,03,20,0.00
2019,02,27,03,21,0.00
2019,02,27,03,22,0.00
2019,02,27,03,23,0.00
2019,02,27,03,24,0.00
2019,02,27,03,25,0.00
2019,02,27,03,26,0.00
2019,02,27,03,27,0.00
2019,02,27,03,28,0.00
2019,02,27,03,29,0.00
2019,02,27,03,30,0.00
2019,02,27,03,31,0.00
2019,02,27,03,32,0.00
2019,02,27,03,33,0.00
2019,02,27,03,34,0.00
2019,02,27,03,35,0.00
2019,02,27,03,36,0.00
2019,02,27,03,37,0.00
2019,02,27,03,38,0.00
2019,02,27,03,39,0.00
2019,02,27,03,40,0.00
2019,02,27,03,41,0.00
2019,02,27,03,42,0.00
2019,02,27,03,43,0.00
2019,02,27,03,44,0.00
2019,02,27,03,45,0.00
2019,02,27,03,46,0.00
2019,02,27,03,47,0.00
2019,02,27,03,48,0.00
2019,02,27,03,49,0.00
2019,02,27,03,50,0.00
2019,02,27,03,51,0.00
2019,02,27,03,52,0.00
2019,02,27,03,53,0.00
2019,02,27,03,54,0.00
2019,02,27,03,55,0.00
2019,02,27,03,56,0.00
2019,02,27,03,57,0.00
2019,02,27,03,58,0.00
2019,02,27,03,59,0.00
2019,02,27,04,00,0.00
2019,02,27,04,01,0.00
2019,02,27,04,02,0.00
2019,02,27,04,03,0.00
2019,02,27,04,04,0.00
2019,02,27,04,05,0.00
2019,02,27,04,06,0.00
2019,02,27,04,07,0.00
2019,02,27,04,08,0.00
2019,02,27,04,09,0.00
2019,02,27,04,10,0.00
2019,02,27,04,11,0.00
2019,02,27,04,12,0.00
2019,02,27,04,13,0.00
2019,02,27,04,14,0.00
2019,02,27,04,15,0.00
2019,02,27,04,16,0.00
2019,02,27,04,17,0.00
2019,02,27,04,18,0.00
2019,02,27,04,19,0.00
2019,02,27,04,20,0.00
2019,02,27,04,21,0.00
2019,02,27,04,22,0.00
2019,02,27,04,23,0.00
2019,02,27,04,24,0.00
2019,02,27,04,25,0.00
2019,02,27,04,26,0.00
2019,02,27,04,27,0.00
2019,02,27,04,28,0.00
2019,02,27,04,29,0.00
2019,02,27,04,30,0.00
2019,02,27,04,31,0.00
2019,02,27,04,32,0.00
2019,02,27,04,33,0.00
2019,02,27,04,34,0.00
2019,02,27,04,35,0.00
2019,02,27,04,36,0.00
2019,02,27,04,37,0.00
2019,02,27,04,38,0.00
2019,02,27,04,39,0.00
2019,02,27,04,40,0.00
2019,02,27,04,41,0.00
2019,02,27,04,42,0.00
2019,02,27,04,43,0.00
2019,02,27,04,44,0.00
2019,02,27,04,45,0.00
2019,02,27,04,46,0.00
2019,02,27,04,47,0.00
2019,02,27,04,48,0.00
2019,02,27,04,49,0.00
2019,02,27,04,50,0.00
2019,02,27,04,51,0.00
2019,02,27,04,52,0.00
2019,02,27,04,53,0.00
2019,02,27,04,54,0.00
2019,02,27,04,55,0.00
2019,02,27,04,56,0.00
2019,02,27,04,57,0.00
2019,02,27,04,58,0.00
2019,02,27,04,59,0.00
2019,02,27,05,00,0.00
2019,02,27,05,01,0.00
2019,02,27,05,02,0.00
2019,02,27,05,03,0.00
2019,02,27,05,04,0.00
2019,02,27,05,05,0.00
2019,02,27,05,06,0.00
2019,02,27,05,07,0.00
2019,02,27,05,08,0.00
2019,02,27,05,09,0.00
2019,02,27,05,10,0.00
2019,02,27,05,11,0.00
2019,02,27,05,12,0.00
2019,02,27,05,13,0.00
2019,02,27,05,14,0.00
2019,02,27,05,15,0.00
2019,02,27,05,16,0.00
2019,02,27,05,17,0.00
2019,02,27,05,18,0.00
2019,02,27,05,19,0.00
2019,02,27,05,20,0.00
2019,02,27,05,21,0.00
2019,02,27,05,22,0.00
2019,02,27,05,23,0.00
2019,02,27,05,24,0.00
2019,02,27,05,25,0.00
2019,02,27,05,26,0.00
2019,02,27,05,27,0.00
2019,02,27,05,28,0.00
2019,02,27,05,29,0.00
2019,02,27,05,30,0.00
2019,02,27,05,31,0.00
2019,02,27,05,32,0.00
2019,02,27,05,33,0.00
2019,02,27,05,34,0.00
2019,02,27,05,35,0.00
2019,02,27,05,36,0.00
2019,02,27,05,37,0.00
2019,02,27,05,38,0.00
2019,02,27,05,39,0.00
2019,02,27,05,40,0.00
2019,02,27,05,41,0.00
2019,02,27,05,42,0.00
2019,02,27,05,43,0.00
2019,02,27,05,44,0.00
2019,02,27,05,45,0.00
2019,02,27,05,46,0.00
2019,02,27,05,47,0.00
2019,02,27,05,48,0.00
2019,02,27,05,49,0.00
2019,02,27,05,50,0.00
2019,02,27,05,51,0.00
2019,02,27,05,52,0.00
2019,02,27,05,53,0.00
2019,02,27,05,54,0.00
2019,02,27,05,55,0.00
2019,02,27,05,56,0.00
2019,02,27,05,57,0.00
2019,02,27,05,58,0.00
2019,02,27,05,59,0.00
2019,02,27,06,00,0.00
2019,02,27,06,01,0.00
2019,02,27,06,02,0.00
2019,02,27,06,03,0.00
2019,02,27,06,04,0.00
2019,02,27,06,05,0.00
2019,02,27,06,06,0.00
2019,02,27,06,07,0.00
2019,02,27,06,08,0.00
2019,02,27,06,09,0.00
2019,02,27,06,10,0.00
2019,02,27,06,11,0.00
2019,02,27,06,12,0.00
2019,02,27,06,13,0.00
2019,02,27,06,14,0.00
2019,02,27,06,15,0.00
2019,02,27,06,16,0.00
2019,02,27,06,17,0.00
2019,02,27,06,18,0.00
2019,02,27,06,19,0.00
2019,02,27,06,20,0.00
2019,02,27,06,21,0.00
2019,02,27,06,22,0.00
2019,02,27,06,23,0.00
2019,02,27,06,24,0.00
2019,02,27,06,25,0.00
2019,02,27,06,26,0.00
2019,02,27,06,27,0.00
2019,02,27,06,28,0.00
2019,02,27,06,29,0.00
2019,02,27,06,30,0.00
2019,02,27,06,31,0.00
2019,02,27,06,32,0.00
2019,02,27,06,33,0.00
2019,02,27,06,34,0.00
2019,02,27,06,35,0.00
2019,02,27,06,36,0.00
2019,02,27,06,37,0.00
2019,02,27,06,38,0.00
2019,02,27,06,39,0.00
2019,02,27,06,40,0.00
2019,02,27,06,41,0.00
2019,02,27,06,42,0.00
2019,02,27,06,43,0.00
2019,02,27,06,44,0.00
2019,02,27,06,45,0.00
2019,02,27,06,46,0.00
2019,02,27,06,47,0.00
2019,02,27,06,48,0.00
2019,02,27,06,49,0.00
2019,02,27,06,50,0.00
2019,02,27,06,51,0.00
2019,02,27,06,52,0.00
2019,02,27,06,53,0.00
2019,02,27,06,54,0.00
2019,02,27,06,55,0.00
2019,02,27,06,56,0.00
2019,02,27,06,57,0.00
2019,02,27,06,58,0.00
2019,02,27,06,59,0.00
2019,02,27,07,00,0.00
2019,02,27,07,01,0.00
2019,02,27,07,02,0.00
2019,02,27,07,03,0.00
2019,02,27,07,04,0.00
2019,02,27,07,05,0.00
2019,02,27,07,06,0.00
2019,02,27,07,07,0.00
2019,02,27,07,08,0.00
2019,02,27,07,09,0.00
2019,02,27,07,10,0.00
2019,02,27,07,11,0.00
2019,02,27,07,12,0.00
2019,02,27,07,13,0.00
2019,02,27,07,14,0.00
2019,02,27,07,15,0.00
2019,02,27,07,16,0.00
2019,02,27,07,17,4.30
2019,02,27,07,18,5.00
2019,02,27,07,19,5.00
2019,02,27,07,20,5.70
2019,02,27,07,21,7.00
2019,02,27,07,22,8.20
2019,02,27,07,23,9.00
2019,02,27,07,24,9.00
2019,02,27,07,25,9.00
2019,02,27,07,26,9.00
2019,02,27,07,27,9.70
2019,02,27,07,28,11.00
2019,02,27,07,29,11.00
2019,02,27,07,30,11.00
2019,02,27,07,31,11.90
2019,02,27,07,32,12.00
2019,02,27,07,33,12.00
2019,02,27,07,34,12.00
2019,02,27,07,35,12.00
2019,02,27,07,36,12.00
2019,02,27,07,37,12.00
2019,02,27,07,38,12.00
2019,02,27,07,39,12.10
2019,02,27,07,40,14.00
2019,02,27,07,41,14.70
2019,02,27,07,42,16.00
2019,02,27,07,43,17.10
2019,02,27,07,44,18.00
2019,02,27,07,45,18.80
2019,02,27,07,46,19.00
2019,02,27,07,47,19.00
2019,02,27,07,48,19.00
2019,02,27,07,49,19.00
2019,02,27,07,50,20.20
2019,02,27,07,51,21.00
2019,02,27,07,52,21.00
2019,02,27,07,53,21.10
2019,02,27,07,54,23.00
2019,02,27,07,55,23.00
2019,02,27,07,56,23.90
2019,02,27,07,57,25.00
2019,02,27,07,58,25.00
2019,02,27,07,59,25.80
2019,02,27,08,00,26.10
2019,02,27,08,01,28.00
2019,02,27,08,02,28.70
2019,02,27,08,03,30.00
2019,02,27,08,04,30.00
2019,02,27,08,05,30.00
2019,02,27,08,06,30.00
2019,02,27,08,07,31.90
2019,02,27,08,08,32.00
2019,02,27,08,09,32.00
2019,02,27,08,10,32.00
2019,02,27,08,11,32.00
2019,02,27,08,12,32.70
2019,02,27,08,13,34.70
2019,02,27,08,14,37.10
2019,02,27,08,15,39.00
2019,02,27,08,16,39.00
2019,02,27,08,17,39.00
2019,02,27,08,18,39.00
2019,02,27,08,19,39.00
2019,02,27,08,20,39.00
2019,02,27,08,21,39.10
2019,02,27,08,22,40.00
2019,02,27,08,23,40.60
2019,02,27,08,24,42.00
2019,02,27,08,25,42.00
2019,02,27,08,26,43.40
2019,02,27,08,27,44.00
2019,02,27,08,28,45.90
2019,02,27,08,29,46.00
2019,02,27,08,30,46.00
2019,02,27,08,31,46.00
2019,02,27,08,32,46.60
2019,02,27,08,33,48.40
2019,02,27,08,34,50.70
2019,02,27,08,35,52.90
2019,02,27,08,36,53.00
2019,02,27,08,37,53.00
2019,02,27,08,38,52.10
2019,02,27,08,39,51.00
2019,02,27,08,40,51.00
2019,02,27,08,41,51.00
2019,02,27,08,42,52.90
2019,02,27,08,43,53.20
2019,02,27,08,44,54.00
2019,02,27,08,45,54.00
2019,02,27,08,46,55.10
2019,02,27,08,47,58.80
2019,02,27,08,48,61.60
2019,02,27,08,49,62.10
2019,02,27,08,50,63.00
2019,02,27,08,51,63.00
2019,02,27,08,52,63.90
2019,02,27,08,53,65.00
2019,02,27,08,54,66.40
2019,02,27,08,55,67.00
2019,02,27,08,56,67.00
2019,02,27,08,57,67.00
2019,02,27,08,58,67.00
2019,02,27,08,59,67.00
2019,02,27,09,00,67.00
2019,02,27,09,01,68.40
2019,02,27,09,02,69.80
2019,02,27,09,03,74.10
2019,02,27,09,04,77.00
2019,02,27,09,05,77.00
2019,02,27,09,06,76.50
2019,02,27,09,07,74.80
2019,02,27,09,08,71.10
2019,02,27,09,09,69.10
2019,02,27,09,10,70.20
2019,02,27,09,11,75.10
2019,02,27,09,12,80.70
2019,02,27,09,13,85.90
2019,02,27,09,14,89.20
2019,02,27,09,15,90.70
2019,02,27,09,16,91.00
2019,02,27,09,17,91.00
2019,02,27,09,18,91.00
2019,02,27,09,19,91.00
2019,02,27,09,20,90.50
2019,02,27,09,21,90.60
2019,02,27,09,22,92.40
2019,02,27,09,23,94.70
2019,02,27,09,24,96.90
2019,02,27,09,25,97.00
2019,02,27,09,26,95.70
2019,02,27,09,27,92.10
2019,02,27,09,28,91.00
2019,02,27,09,29,92.40
2019,02,27,09,30,96.40
2019,02,27,09,31,102.20
2019,02,27,09,32,107.90
2019,02,27,09,33,112.00
2019,02,27,09,34,114.00
2019,02,27,09,35,115.20
2019,02,27,09,36,118.90
2019,02,27,09,37,124.10
2019,02,27,09,38,128.00
2019,02,27,09,39,130.40
2019,02,27,09,40,132.00
2019,02,27,09,41,132.90
2019,02,27,09,42,135.70
2019,02,27,09,43,138.40
2019,02,27,09,44,144.80
2019,02,27,09,45,155.40
2019,02,27,09,46,166.30
2019,02,27,09,47,171.00
2019,02,27,09,48,169.10
2019,02,27,09,49,164.60
2019,02,27,09,50,160.90
2019,02,27,09,51,150.60
2019,02,27,09,52,140.90
2019,02,27,09,53,134.80
2019,02,27,09,54,133.40
2019,02,27,09,55,133.00
2019,02,27,09,56,134.00
2019,02,27,09,57,136.10
2019,02,27,09,58,135.40
2019,02,27,09,59,129.90
2019,02,27,10,00,127.00
2019,02,27,10,01,127.30
2019,02,27,10,02,128.00
2019,02,27,10,03,123.40
2019,02,27,10,04,112.30
2019,02,27,10,05,104.90
2019,02,27,10,06,102.10
2019,02,27,10,07,102.00
2019,02,27,10,08,103.00
2019,02,27,10,09,106.90
2019,02,27,10,10,111.90
2019,02,27,10,11,116.80
2019,02,27,10,12,119.60
2019,02,27,10,13,121.00
2019,02,27,10,14,120.80
2019,02,27,10,15,117.70
2019,02,27,10,16,108.30
2019,02,27,10,17,96.90
2019,02,27,10,18,88.10
2019,02,27,10,19,78.60
2019,02,27,10,20,72.00
2019,02,27,10,21,69.80
2019,02,27,10,22,70.10
2019,02,27,10,23,73.80
2019,02,27,10,24,80.70
2019,02,27,10,25,88.80
2019,02,27,10,26,98.40
2019,02,27,10,27,107.30
2019,02,27,10,28,115.50
2019,02,27,10,29,123.10
2019,02,27,10,30,130.90
2019,02,27,10,31,139.00
2019,02,27,10,32,146.20
2019,02,27,10,33,148.80
2019,02,27,10,34,148.50
2019,02,27,10,35,140.10
2019,02,27,10,36,129.80
2019,02,27,10,37,123.10
2019,02,27,10,38,124.60
2019,02,27,10,39,135.40
2019,02,27,10,40,148.90
2019,02,27,10,41,162.80
2019,02,27,10,42,162.80
2019,02,27,10,43,149.20
2019,02,27,10,44,128.60
2019,02,27,10,45,106.60
2019,02,27,10,46,89.40
2019,02,27,10,47,80.00
2019,02,27,10,48,79.40
2019,02,27,10,49,87.00
2019,02,27,10,50,103.30
2019,02,27,10,51,120.50
2019,02,27,10,52,132.10
2019,02,27,10,53,136.40
2019,02,27,10,54,135.40
2019,02,27,10,55,136.90
2019,02,27,10,56,136.60
2019,02,27,10,57,134.70
2019,02,27,10,58,136.20
2019,02,27,10,59,144.10
2019,02,27,11,00,151.60
2019,02,27,11,01,155.60
2019,02,27,11,02,158.10
2019,02,27,11,03,160.90
2019,02,27,11,04,166.30
2019,02,27,11,05,169.00
2019,02,27,11,06,165.60
2019,02,27,11,07,158.00
2019,02,27,11,08,150.00
2019,02,27,11,09,144.00
2019,02,27,11,10,141.40
2019,02,27,11,11,137.40
2019,02,27,11,12,130.90
2019,02,27,11,13,124.70
2019,02,27,11,14,120.90
2019,02,27,11,15,116.60
2019,02,27,11,16,114.10
2019,02,27,11,17,113.00
2019,02,27,11,18,113.00
2019,02,27,11,19,113.50
2019,02,27,11,20,116.30
2019,02,27,11,21,120.10
2019,02,27,11,22,122.60
2019,02,27,11,23,122.80
2019,02,27,11,24,118.70
2019,02,27,11,25,113.70
2019,02,27,11,26,113.00
2019,02,27,11,27,113.60
2019,02,27,11,28,115.40
2019,02,27,11,29,117.60
2019,02,27,11,30,118.20
2019,02,27,11,31,120.20
2019,02,27,11,32,122.30
2019,02,27,11,33,125.90
2019,02,27,11,34,127.60
2019,02,27,11,35,128.00
2019,02,27,11,36,129.70
2019,02,27,11,37,132.10
2019,02,27,11,38,134.20
2019,02,27,11,39,135.70
2019,02,27,11,40,138.90
2019,02,27,11,41,144.00
2019,02,27,11,42,149.40
2019,02,27,11,43,154.30
2019,02,27,11,44,155.70
2019,02,27,11,45,151.90
2019,02,27,11,46,146.70
2019,02,27,11,47,144.00
2019,02,27,11,48,142.90
2019,02,27,11,49,139.90
2019,02,27,11,50,135.70
2019,02,27,11,51,134.00
2019,02,27,11,52,134.20
2019,02,27,11,53,135.70
2019,02,27,11,54,138.90
2019,02,27,11,55,142.80
2019,02,27,11,56,146.80
2019,02,27,11,57,148.80
2019,02,27,11,58,151.20
2019,02,27,11,59,155.20
2019,02,27,12,00,156.70
2019,02,27,12,01,158.90
2019,02,27,12,02,160.00
2019,02,27,12,03,160.00
2019,02,27,12,04,156.70
2019,02,27,12,05,154.90
2019,02,27,12,06,152.60
2019,02,27,12,07,150.30
2019,02,27,12,08,149.00
2019,02,27,12,09,149.00
2019,02,27,12,10,148.30
2019,02,27,12,11,146.40
2019,02,27,12,12,142.10
2019,02,27,12,13,141.00
2019,02,27,12,14,141.00
2019,02,27,12,15,140.10
2019,02,27,12,16,139.00
2019,02,27,12,17,139.00
2019,02,27,12,18,140.60
2019,02,27,12,19,141.10
2019,02,27,12,20,142.00
2019,02,27,12,21,143.30
2019,02,27,12,22,146.90
2019,02,27,12,23,148.00
2019,02,27,12,24,148.00
2019,02,27,12,25,146.40
2019,02,27,12,26,142.10
2019,02,27,12,27,140.30
2019,02,27,12,28,136.00
2019,02,27,12,29,134.00
2019,02,27,12,30,134.00
2019,02,27,12,31,136.10
2019,02,27,12,32,137.00
2019,02,27,12,33,136.90
2019,02,27,12,34,134.80
2019,02,27,12,35,134.00
2019,02,27,12,36,134.50
2019,02,27,12,37,135.00
2019,02,27,12,38,136.40
2019,02,27,12,39,138.60
2019,02,27,12,40,139.20
2019,02,27,12,41,141.00
2019,02,27,12,42,141.00
2019,02,27,12,43,141.00
2019,02,27,12,44,139.90
2019,02,27,12,45,139.00
2019,02,27,12,46,139.00
2019,02,27,12,47,139.00
2019,02,27,12,48,139.40
2019,02,27,12,49,141.30
2019,02,27,12,50,142.90
2019,02,27,12,51,145.10
2019,02,27,12,52,147.40
2019,02,27,12,53,148.90
2019,02,27,12,54,148.80
2019,02,27,12,55,145.10
2019,02,27,12,56,139.10
2019,02,27,12,57,132.70
2019,02,27,12,58,128.20
2019,02,27,12,59,124.30
2019,02,27,13,00,120.50
2019,02,27,13,01,117.90
2019,02,27,13,02,115.60
2019,02,27,13,03,114.00
2019,02,27,13,04,114.00
2019,02,27,13,05,114.00
2019,02,27,13,06,114.00
2019,02,27,13,07,113.10
2019,02,27,13,08,113.00
2019,02,27,13,09,113.00
2019,02,27,13,10,113.00
2019,02,27,13,11,113.00
2019,02,27,13,12,113.00
2019,02,27,13,13,113.00
2019,02,27,13,14,113.00
2019,02,27,13,15,111.20
2019,02,27,13,16,113.00
2019,02,27,13,17,113.00
2019,02,27,13,18,113.40
2019,02,27,13,19,116.30
2019,02,27,13,20,120.10
2019,02,27,13,21,122.60
2019,02,27,13,22,121.00
2019,02,27,13,23,119.10
2019,02,27,13,24,115.00
2019,02,27,13,25,112.10
2019,02,27,13,26,111.00
2019,02,27,13,27,112.40
2019,02,27,13,28,113.00
2019,02,27,13,29,110.90
2019,02,27,13,30,108.60
2019,02,27,13,31,106.00
2019,02,27,13,32,103.10
2019,02,27,13,33,102.00
2019,02,27,13,34,102.00
2019,02,27,13,35,103.70
2019,02,27,13,36,105.10
2019,02,27,13,37,107.00
2019,02,27,13,38,106.40
2019,02,27,13,39,100.40
2019,02,27,13,40,92.00
2019,02,27,13,41,87.10
2019,02,27,13,42,84.40
2019,02,27,13,43,82.90
2019,02,27,13,44,80.60
2019,02,27,13,45,78.30
2019,02,27,13,46,76.50
2019,02,27,13,47,76.00
2019,02,27,13,48,76.00
2019,02,27,13,49,76.80
2019,02,27,13,50,81.00
2019,02,27,13,51,83.20
2019,02,27,13,52,84.00
2019,02,27,13,53,84.00
2019,02,27,13,54,86.30
2019,02,27,13,55,91.60
2019,02,27,13,56,96.40
2019,02,27,13,57,95.00
2019,02,27,13,58,93.00
2019,02,27,13,59,94.40
2019,02,27,14,00,99.20
2019,02,27,14,01,102.00
2019,02,27,14,02,99.20
2019,02,27,14,03,93.90
2019,02,27,14,04,93.40
2019,02,27,14,05,97.60
2019,02,27,14,06,101.30
2019,02,27,14,07,104.00
2019,02,27,14,08,104.00
2019,02,27,14,09,102.60
2019,02,27,14,10,100.40
2019,02,27,14,11,99.60
2019,02,27,14,12,93.10
2019,02,27,14,13,84.40
2019,02,27,14,14,79.20
2019,02,27,14,15,76.40
2019,02,27,14,16,76.00
2019,02,27,14,17,74.40
2019,02,27,14,18,73.90
2019,02,27,14,19,72.00
2019,02,27,14,20,72.00
2019,02,27,14,21,71.10
2019,02,27,14,22,70.00
2019,02,27,14,23,69.30
2019,02,27,14,24,69.00
2019,02,27,14,25,72.10
2019,02,27,14,26,77.10
2019,02,27,14,27,82.00
2019,02,27,14,28,86.80
2019,02,27,14,29,91.70
2019,02,27,14,30,95.80
2019,02,27,14,31,97.80
2019,02,27,14,32,96.70
2019,02,27,14,33,92.60
2019,02,27,14,34,91.70
2019,02,27,14,35,93.90
2019,02,27,14,36,93.90
2019,02,27,14,37,93.00
2019,02,27,14,38,91.40
2019,02,27,14,39,83.90
2019,02,27,14,40,80.30
2019,02,27,14,41,76.00
2019,02,27,14,42,74.00
2019,02,27,14,43,74.00
2019,02,27,14,44,74.00
2019,02,27,14,45,72.40
2019,02,27,14,46,71.80
2019,02,27,14,47,68.60
2019,02,27,14,48,66.40
2019,02,27,14,49,64.10
2019,02,27,14,50,62.40
2019,02,27,14,51,60.60
2019,02,27,14,52,60.00
2019,02,27,14,53,60.00
2019,02,27,14,54,59.60
2019,02,27,14,55,57.30
2019,02,27,14,56,56.00
2019,02,27,14,57,54.90
2019,02,27,14,58,53.30
2019,02,27,14,59,53.00
2019,02,27,15,00,53.20
2019,02,27,15,01,56.90
2019,02,27,15,02,60.00
2019,02,27,15,03,59.10
2019,02,27,15,04,55.70
2019,02,27,15,05,51.90
2019,02,27,15,06,49.40
2019,02,27,15,07,45.90
2019,02,27,15,08,43.60
2019,02,27,15,09,42.60
2019,02,27,15,10,43.10
2019,02,27,15,11,40.90
2019,02,27,15,12,39.30
2019,02,27,15,13,39.80
2019,02,27,15,14,42.00
2019,02,27,15,15,44.00
2019,02,27,15,16,44.00
2019,02,27,15,17,44.00
2019,02,27,15,18,45.70
2019,02,27,15,19,49.80
2019,02,27,15,20,52.60
2019,02,27,15,21,54.00
2019,02,27,15,22,54.00
2019,02,27,15,23,54.60
2019,02,27,15,24,55.10
2019,02,27,15,25,53.40
2019,02,27,15,26,51.60
2019,02,27,15,27,49.40
2019,02,27,15,28,47.10
2019,02,27,15,29,47.00
2019,02,27,15,30,46.70
2019,02,27,15,31,45.10
2019,02,27,15,32,42.90
2019,02,27,15,33,40.60
2019,02,27,15,34,40.00
2019,02,27,15,35,38.90
2019,02,27,15,36,37.00
2019,02,27,15,37,36.30
2019,02,27,15,38,34.10
2019,02,27,15,39,33.00
2019,02,27,15,40,32.30
2019,02,27,15,41,32.00
2019,02,27,15,42,30.20
2019,02,27,15,43,32.00
2019,02,27,15,44,32.00
2019,02,27,15,45,31.10
2019,02,27,15,46,30.00
2019,02,27,15,47,30.00
2019,02,27,15,48,30.00
2019,02,27,15,49,28.10
2019,02,27,15,50,27.60
2019,02,27,15,51,26.00
2019,02,27,15,52,26.00
2019,02,27,15,53,25.40
2019,02,27,15,54,25.00
2019,02,27,15,55,25.00
2019,02,27,15,56,23.10
2019,02,27,15,57,22.60
2019,02,27,15,58,21.00
2019,02,27,15,59,21.00
2019,02,27,16,00,19.80
2019,02,27,16,01,19.00
2019,02,27,16,02,19.00
2019,02,27,16,03,18.90
2019,02,27,16,04,18.00
2019,02,27,16,05,18.00
2019,02,27,16,06,18.00
2019,02,27,16,07,18.00
2019,02,27,16,08,18.00
2019,02,27,16,09,18.00
2019,02,27,16,10,18.00
2019,02,27,16,11,18.00
2019,02,27,16,12,18.00
2019,02,27,16,13,18.00
2019,02,27,16,14,18.00
2019,02,27,16,15,18.00
2019,02,27,16,16,16.40
2019,02,27,16,17,16.00
2019,02,27,16,18,16.00
2019,02,27,16,19,16.00
2019,02,27,16,20,16.90
2019,02,27,16,21,18.00
2019,02,27,16,22,18.00
2019,02,27,16,23,18.00
2019,02,27,16,24,18.00
2019,02,27,16,25,18.00
2019,02,27,16,26,18.00
2019,02,27,16,27,17.10
2019,02,27,16,28,16.00
2019,02,27,16,29,16.00
2019,02,27,16,30,17.60
2019,02,27,16,31,18.10
2019,02,27,16,32,18.80
2019,02,27,16,33,18.00
2019,02,27,16,34,18.00
2019,02,27,16,35,18.00
2019,02,27,16,36,18.00
2019,02,27,16,37,18.00
2019,02,27,16,38,18.00
2019,02,27,16,39,18.00
2019,02,27,16,40,18.30
2019,02,27,16,41,19.00
2019,02,27,16,42,19.00
2019,02,27,16,43,20.40
2019,02,27,16,44,21.00
2019,02,27,16,45,20.90
2019,02,27,16,46,18.80
2019,02,27,16,47,18.00
2019,02,27,16,48,17.10
2019,02,27,16,49,16.00
2019,02,27,16,50,16.00
2019,02,27,16,51,16.00
2019,02,27,16,52,16.00
2019,02,27,16,53,15.60
2019,02,27,16,54,14.00
2019,02,27,16,55,13.10
2019,02,27,16,56,12.00
2019,02,27,16,57,12.00
2019,02,27,16,58,11.20
2019,02,27,16,59,11.00
2019,02,27,17,00,11.00
2019,02,27,17,01,11.00
2019,02,27,17,02,11.00
2019,02,27,17,03,11.00
2019,02,27,17,04,11.00
2019,02,27,17,05,11.00
2019,02,27,17,06,11.10
2019,02,27,17,07,12.00
2019,02,27,17,08,12.00
2019,02,27,17,09,12.00
2019,02,27,17,10,12.00
2019,02,27,17,11,12.00
2019,02,27,17,12,12.00
2019,02,27,17,13,12.00
2019,02,27,17,14,12.00
2019,02,27,17,15,12.60
2019,02,27,17,16,14.00
2019,02,27,17,17,14.00
2019,02,27,17,18,12.60
2019,02,27,17,19,12.00
2019,02,27,17,20,11.10
2019,02,27,17,21,11.20
2019,02,27,17,22,12.00
2019,02,27,17,23,12.00
2019,02,27,17,24,12.00
2019,02,27,17,25,11.30
2019,02,27,17,26,11.00
2019,02,27,17,27,11.00
2019,02,27,17,28,10.60